FW5819 Weather Reports


Display with metric or nautical units.
time (UTC)temp
F
wind
direction
speed
MPH
gust
MPH
rain 1hr
in
rain 24hr
in
rain mn
in
humidity
%
barometer
mb
20191023083037 45 195 1.0 5.0 0.00 0.00 0.00 79 1011.7
20191023081554 45 194 1.0 5.0 0.00 0.00 0.00 79 1011.6
20191023080050 45 101 1.0 4.0 0.00 0.00 0.00 78 1011.6
20191023074543 45 202 1.0 7.0 0.00 0.00 0.00 77 1011.6
20191023073054 46 142 1.0 5.0 0.00 0.00 0.00 77 1011.5
20191023071554 46 197 1.0 5.0 0.00 0.00 0.00 77 1011.7
20191023070042 45 147 0.0 3.0 0.00 0.00 0.00 78 1011.5
20191023064558 46 158 0.0 4.0 0.00 0.00 0.00 76 1011.2
20191023063040 46 0 2.0 7.0 0.00 0.00 0.00 75 1011.0
20191023061543 47 192 1.0 7.0 0.00 0.00 0.00 74 1011.0
20191023060038 46 134 1.0 4.0 0.00 0.00 0.00 74 1011.0
20191023054554 47 0 0.0 4.0 0.00 0.00 0.00 73 1010.8
20191023053037 47 0 0.0 4.0 0.00 0.00 0.00 71 1010.8
20191023051553 48 128 1.0 4.0 0.00 0.00 0.00 68 1010.6
20191023050058 49 65 2.0 6.0 0.00 0.00 0.00 67 1010.3
20191023044622 49 147 2.0 9.0 0.00 0.01 0.00 66 1010.4
20191023043029 49 220 2.0 6.0 0.00 0.01 0.00 65 1010.5
20191023041531 50 174 4.0 9.0 0.00 0.01 0.00 64 1010.6
20191023040031 50 198 1.0 9.0 0.00 0.01 0.00 64 1010.6
20191023034559 50 255 1.0 7.0 0.00 0.06 0.01 64 1010.6
20191023033055 50 0 2.0 9.0 0.00 0.06 0.01 63 1010.7
20191023031555 50 211 3.0 7.0 0.00 0.06 0.01 62 1010.6
20191023030047 51 209 3.0 7.0 0.00 0.06 0.01 63 1010.4
20191023024536 51 167 2.0 7.0 0.00 0.19 0.01 63 1010.7
20191023023114 51 200 2.0 10.0 0.00 0.19 0.01 64 1010.7
20191023021542 51 190 1.0 5.0 0.00 0.19 0.01 65 1010.6
20191023020031 52 229 2.0 7.0 0.00 0.19 0.01 62 1010.4
20191023014535 53 125 1.0 9.0 0.00 0.27 0.01 62 1010.2
20191023013035 53 281 2.0 13.0 0.00 0.27 0.01 62 1010.2
20191023011552 53 342 3.0 10.0 0.00 0.27 0.01 62 1010.1
20191023010053 53 218 4.0 11.0 0.00 0.27 0.01 62 1009.9
20191023004544 53 252 1.0 9.0 0.00 0.27 0.01 63 1009.8
20191023003045 54 253 2.0 6.0 0.00 0.27 0.01 61 1009.6
20191023001542 54 219 1.0 6.0 0.00 0.27 0.01 61 1009.3
20191023000040 54 305 1.0 5.0 0.00 0.27 0.01 60 1009.0
20191022234535 55 176 3.0 10.0 0.00 0.27 0.01 59 1008.9
20191022233053 55 198 3.0 6.0 0.00 0.27 0.01 59 1008.8
20191022231543 55 263 2.0 7.0 0.00 0.27 0.01 59 1008.5
20191022230056 55 148 1.0 7.0 0.00 0.27 0.01 57 1008.3
20191022224627 55 192 1.0 11.0 0.00 0.27 0.01 57 1008.0
20191022223105 56 211 2.0 9.0 0.00 0.27 0.01 56 1007.9
20191022221530 56 204 3.0 10.0 0.00 0.27 0.01 54 1007.6
20191022220040 56 267 5.0 13.0 0.00 0.27 0.01 53 1007.4
20191022214557 57 251 5.0 12.0 0.00 0.27 0.01 52 1007.2
20191022213118 58 284 3.0 12.0 0.00 0.27 0.01 52 1007.1
20191022211543 58 286 4.0 11.0 0.00 0.27 0.01 52 1007.0
20191022210042 58 256 6.0 18.0 0.00 0.27 0.01 52 1007.0
20191022204610 58 146 6.0 13.0 0.00 0.27 0.01 53 1007.1
20191022203049 58 250 6.0 13.0 0.00 0.27 0.01 53 1007.1
20191022201554 59 238 4.0 14.0 0.00 0.27 0.01 54 1006.8
20191022200039 58 252 7.0 14.0 0.00 0.27 0.01 54 1006.7
20191022194520 59 322 5.0 16.0 0.00 0.27 0.01 52 1006.2
20191022193054 60 207 3.0 13.0 0.00 0.27 0.01 54 1005.9
20191022191542 60 245 6.0 14.0 0.00 0.27 0.01 52 1005.8
20191022190108 61 258 6.0 17.0 0.00 0.27 0.01 50 1005.4
20191022184604 61 306 6.0 20.0 0.00 0.27 0.01 54 1005.4
20191022183041 62 179 6.0 20.0 0.00 0.27 0.01 51 1005.2
20191022181609 63 204 6.0 20.0 0.00 0.27 0.01 48 1005.2
20191022180049 63 284 5.0 17.0 0.00 0.27 0.01 48 1004.9
20191022174612 62 148 7.0 18.0 0.00 0.27 0.01 51 1004.8
20191022173059 64 96 9.0 20.0 0.00 0.27 0.01 47 1005.1
20191022171601 63 198 9.0 22.0 0.00 0.27 0.01 51 1005.0
20191022170047 62 19 4.0 13.0 0.00 0.27 0.01 55 1005.1
20191022164535 61 75 5.0 14.0 0.00 0.27 0.01 57 1005.4
20191022163052 61 167 5.0 12.0 0.00 0.27 0.01 58 1005.6
20191022161527 62 280 5.0 16.0 0.00 0.27 0.01 54 1005.5
20191022160038 63 164 6.0 14.0 0.00 0.27 0.01 53 1005.6
20191022154533 62 274 8.0 21.0 0.00 0.27 0.01 53 1005.4
20191022153035 62 238 7.0 18.0 0.00 0.27 0.01 53 1005.6
20191022151629 62 267 4.0 17.0 0.00 0.27 0.01 53 1005.6
20191022150051 62 205 7.0 16.0 0.00 0.27 0.01 51 1005.6
20191022144534 61 240 5.0 12.0 0.00 0.27 0.01 52 1005.6
20191022143052 61 267 3.0 12.0 0.00 0.27 0.01 56 1005.7
20191022141538 60 259 4.0 10.0 0.00 0.27 0.01 55 1005.7
20191022140047 58 192 2.0 9.0 0.00 0.27 0.01 61 1005.8
20191022134531 56 144 2.0 7.0 0.00 0.27 0.01 64 1005.9
20191022133032 55 163 1.0 6.0 0.00 0.27 0.01 66 1006.1
20191022131533 55 0 1.0 6.0 0.00 0.27 0.01 66 1006.3
20191022130033 55 155 2.0 7.0 0.00 0.27 0.01 67 1006.2
20191022124539 54 142 2.0 6.0 0.00 0.27 0.01 69 1006.2
20191022123029 54 74 1.0 4.0 0.00 0.27 0.01 73 1006.3
20191022121533 54 163 0.0 3.0 0.00 0.27 0.01 74 1005.9
20191022120057 54 0 0.0 1.0 0.00 0.27 0.01 77 1005.3
20191022114537 55 164 0.0 5.0 0.00 0.27 0.01 72 1005.5
20191022113034 55 160 1.0 4.0 0.00 0.27 0.01 71 1006.0
20191022111521 56 240 1.0 5.0 0.00 0.27 0.01 68 1006.1
20191022110039 56 130 1.0 5.0 0.00 0.27 0.01 69 1006.9
20191022104534 56 152 1.0 3.0 0.00 0.27 0.01 68 1007.0
20191022103045 56 175 1.0 4.0 0.00 0.27 0.01 67 1006.8
20191022101546 57 194 1.0 4.0 0.00 0.27 0.01 67 1006.0
20191022100041 58 244 1.0 7.0 0.00 0.27 0.01 68 1005.3
20191022094531 58 253 1.0 10.0 0.00 0.27 0.01 75 1005.3
20191022093044 58 121 1.0 4.0 0.00 0.27 0.01 89 1005.6
20191022091554 59 143 1.0 4.0 0.00 0.27 0.01 88 1005.6
20191022090117 59 153 2.0 7.0 0.00 0.27 0.01 88 1005.7
20191022084529 59 0 0.0 7.0 0.00 0.27 0.01 88 1005.7